Location: Chattahoochee River National Recreation Area
(34.0022°N, 84.2416°W)
Time: 19:53:16
(UTC-04:00)

Daily predictions for brighter satellites

Satellite Brightness Start Highest point End
(mag) Time Altitude Azimuth Time Altitude Azimuth Time Altitude Azimuth
NOSS 3-2 (A) 3.6 19:37:32 10° SSW 19:43:30 84° WNW 19:49:58 10° NNE
Cosmos 1758 4.4 19:44:52 10° SE 19:48:12 25° E 19:51:33 10° NE
ASTRO E2 3.0 19:44:25 10° W 19:48:24 60° S 19:52:23 10° E
SEDSat Delta rocket 4.2 19:42:14 10° WSW 19:48:42 71° S 19:55:30 10° E
Cosmos 1484 Rocket 2.7 19:47:02 10° SSE 19:50:49 73° ENE 19:54:42 10° N
Cosmos 1452 Rocket 4.4 19:47:43 10° N 19:52:14 28° ENE 19:56:42 10° SE
ATLAS 5 CENTAUR R/B 1.8 19:48:39 10° SSW 19:53:20 82° ESE 19:58:22 10° NNE
Cosmos 2237 Rocket 4.3 19:48:43 10° WSW 19:53:39 30° WNW 19:58:36 10° N
Abrixas 2.5 19:51:08 10° SW 19:54:05 62° SE 19:57:03 10° ENE
Cosmos 2346 Rocket 4.5 19:49:13 10° N 19:55:17 87° E 20:01:20 10° S
Cosmos 1437 2.9 19:54:38 10° N 19:57:54 78° W 20:01:09 10° S
Cosmos 1072 Rocket 4.4 19:54:15 10° S 20:00:18 71° E 20:06:22 10° N
COSMO-SKYMED 1 3.6 20:00:18 10° N 20:04:30 51° WNW 20:08:42 10° SSW
Cosmos 1766 3.8 20:07:17 10° SSW 20:11:12 65° W 20:15:09 10° N
Atlas Centaur 2 3.8 20:04:42 10° W 20:12:51 49° SSW 20:20:36 10° SE
ASTEX 1 4.5 20:09:53 10° NE 20:13:39 22° E 20:17:24 10° SE
SL-16 R/B 3.4 20:08:56 10° SW 20:14:23 47° WNW 20:19:53 10° N
CENTAUR R/B 3.1 20:10:07 10° S 20:15:10 31° ESE 20:20:42 10° NE
Cosmos 1544 3.7 20:13:59 10° SSE 20:17:23 35° E 20:20:49 10° NNE
METEOR-M 4.2 20:13:49 10° SSE 20:19:00 54° ENE 20:24:13 10° N
Helios 1B rocket 2.5 20:16:00 10° NNE 20:20:02 53° E 20:24:03 10° S
NOSS 3-2 (C) 4.2 20:16:41 10° SW 20:22:34 55° NW 20:28:56 10° NNE
Cosmos 1766 Rocket 3.5 20:19:16 10° N 20:23:36 63° E 20:27:53 10° SSE
Spot 1 4.2 20:20:52 10° SSE 20:25:36 63° ENE 20:30:05 10° N
Spot 2 Rocket 3.5 20:21:10 10° SSE 20:26:04 55° ENE 20:30:59 10° N
SAR-Lupe-4 4.2 20:23:10 10° S 20:26:40 57° W 20:30:12 10° NNW
OAO 3 Rocket 3.2 20:22:15 10° W 20:27:01 78° N 20:30:04 22° E
Cosmos 1378 4.0 20:24:50 10° NNW 20:28:29 52° W 20:32:06 10° S
Cosmos 1048 Rocket 4.2 20:23:36 10° S 20:28:41 49° ESE 20:33:45 10° NNE
Milstar 3 4.4 20:19:30 10° W 20:29:11 68° S 20:43:34 20° ESE
Cosmos 1269 Rocket 4.0 20:24:02 10° S 20:29:12 59° ESE 20:34:24 10° NNE
Cosmos 1076 Rocket 3.5 20:24:55 10° N 20:29:16 87° W 20:33:37 10° S
Cosmos-2242 2.9 20:28:18 10° S 20:32:39 81° E 20:37:03 10° N
FENGYUN 3A 4.2 20:28:51 15° SE 20:32:46 35° ENE 20:37:37 10° N
Cosmos 2034 Rocket 4.0 20:28:53 10° S 20:35:08 89° WNW 20:41:29 10° N
H-2A R/B 3.9 20:39:09 25° ENE 20:39:09 25° ENE 20:41:54 10° NNE
Gbstr 26 Del rocket 3.1 20:35:33 10° SSW 20:39:43 61° SE 20:42:57 21° ENE
ATLAS CENTAUR R/B 4.0 20:36:53 10° WNW 20:39:44 19° WSW 20:42:26 10° SSW
Cosmos 1805 3.6 20:36:04 10° SSW 20:39:58 67° W 20:43:53 10° N
Cosmos 1953 2.7 20:37:22 10° SSW 20:41:20 64° W 20:45:17 10° N
Cosmos 1174 4.5 20:37:29 10° S 20:42:24 43° ESE 20:44:15 28° ENE
ISS -3.1 20:39:23 10° SW 20:42:36 68° NW 20:44:06 29° NE
ALOS 2.5 20:42:16 24° SE 20:44:40 45° ENE 20:49:07 10° N
HJ-1C 3.5 20:43:25 10° S 20:46:45 75° WSW 20:50:07 10° NNW
Meteosat 1 Rocket2 4.3 20:45:45 10° WSW 20:52:05 37° S 20:53:39 30° SE
Cosmos 1842 Rocket 3.4 20:48:09 10° S 20:52:24 61° E 20:56:41 10° NNE
Cosmos 158 Rocket 4.0 20:49:12 10° S 20:53:52 47° ESE 20:58:32 10° NNE
Cosmos 1943 3.2 20:51:09 10° S 20:56:38 57° ESE 21:02:09 10° NNE
Cosmos 1500 Rocket 3.7 20:52:27 10° N 20:56:46 49° E 20:57:01 48° E
GPS 2-04 Rocket1 2.2 20:54:31 10° WSW 20:58:01 89° N 20:58:12 80° ENE
USA 215 3.7 20:52:42 10° NE 20:59:06 60° NW 21:05:29 10° WSW
Cosmos 1943 Rocket 4.2 20:56:52 10° NNE 20:58:07 12° NE 20:58:07 12° NE
Cosmos 2369 Rocket 3.0 20:54:48 10° N 20:59:46 31° ENE 20:59:46 31° ENE
Cosmos 1470 2.5 20:59:34 10° S 21:03:26 84° E 21:07:20 10° N
OAO 1 Rocket 4.4 21:06:50 10° W 21:12:13 80° N 21:13:15 58° ENE
CZ-4B DEB 4.3 21:14:32 32° NNW 21:14:32 32° NNW 21:16:26 10° NNW
Resurs 1-3 4.2 21:10:01 11° S 21:14:04 54° W 21:18:23 10° NNW
Helios 1A 4.1 21:10:47 10° S 21:14:47 43° W 21:18:49 10° NNW
SeaSat 1 2.3 21:15:13 65° ESE 21:15:18 65° ESE 21:20:11 10° SSW
Resurs 01 Rocket 3.0 21:13:19 10° SSW 21:17:27 37° W 21:21:36 10° NNW
Cosmos 1674 3.3 21:18:20 10° NNW 21:21:24 52° NNW 21:21:24 52° NNW
Cosmos 1743 Rocket 4.5 21:21:17 10° NNW 21:25:33 48° W 21:27:54 24° SSW
ASTRO E2 4.2 21:25:03 10° W 21:27:45 32° SW 21:27:45 32° SW
SEDSat Delta rocket 4.1 21:28:42 10° W 21:35:21 63° S 21:35:59 60° SSE
Cosmos 839 Rocket 4.2 21:37:23 10° NNW 21:44:15 62° NE 21:44:15 62° NE
Cosmos 1655 Rocket 4.4 21:51:25 10° N 21:55:58 51° N 21:55:58 51° N
Atlas Centaur 2 4.5 21:55:50 10° W 22:01:53 22° SSW 22:03:25 21° SSW
CENTAUR R/B 3.7 22:00:00 10° WSW 22:05:33 38° NW 22:11:46 10° NNE
Cosmos 2026 Rocket 4.5 22:02:26 10° N 22:07:12 54° NNW 22:07:12 54° NNW
Cosmos 2369 Rocket 4.2 22:38:49 10° NW 22:41:35 24° WNW 22:41:35 24° WNW
Cosmos 1943 Rocket 4.4 22:38:11 10° NNW 22:39:39 19° NNW 22:39:39 19° NNW
